Time,TemperatureF,DewpointF,PressureIn,WindDirection,WindDirectionDegrees,WindSpeedMPH,WindSpeedGustMPH,Humidity,HourlyPrecipIn,Conditions,Clouds,dailyrainin,SoftwareType,DateUTC
2013-01-17 00:00:00,36.6,31.7,-100.00,East,82,0.1,2.0,82,-99.99,,,-99.99,WSDL version 423,2013-01-17 05:00:00,
2013-01-17 00:06:00,36.7,31.8,-100.00,East,90,0.0,2.0,82,-99.99,,,-99.99,WSDL version 423,2013-01-17 05:06:00,
2013-01-17 00:12:00,36.7,31.8,-100.00,ESE,113,0.0,0.0,82,-99.99,,,-99.99,WSDL version 423,2013-01-17 05:12:00,
2013-01-17 00:18:00,36.7,31.8,-100.00,SSE,158,0.0,0.0,82,-99.99,,,-99.99,WSDL version 423,2013-01-17 05:18:00,
2013-01-17 00:21:00,36.7,31.8,-100.00,SE,130,0.2,3.1,82,0.00,,,0.00,WSDL version 423,2013-01-17 05:21:00,
2013-01-17 00:27:00,36.7,31.8,-100.00,ESE,116,0.1,3.1,82,0.00,,,0.00,WSDL version 423,2013-01-17 05:27:00,
2013-01-17 00:33:00,36.9,32.0,-100.00,East,90,0.3,2.9,82,-99.99,,,-99.99,WSDL version 423,2013-01-17 05:33:00,
2013-01-17 00:39:00,37.0,32.1,-100.00,East,80,1.8,3.1,82,-99.99,,,-99.99,WSDL version 423,2013-01-17 05:39:00,
2013-01-17 00:45:00,37.0,32.1,-100.00,ESE,113,0.3,3.1,82,-99.99,,,-99.99,WSDL version 423,2013-01-17 05:45:00,
2013-01-17 00:51:00,37.0,31.8,-100.00,ESE,119,0.7,8.7,81,0.00,,,0.00,WSDL version 423,2013-01-17 05:51:00,
2013-01-17 00:57:00,37.1,31.9,-100.00,SE,140,0.1,8.7,81,0.00,,,0.00,WSDL version 423,2013-01-17 05:57:00,
2013-01-17 01:03:00,37.2,31.9,-100.00,SE,138,0.7,3.1,81,0.00,,,0.00,WSDL version 423,2013-01-17 06:03:00,
2013-01-17 01:09:00,37.3,31.9,-100.00,East,93,0.7,3.1,80,0.00,,,0.00,WSDL version 423,2013-01-17 06:09:00,
2013-01-17 01:15:00,37.4,31.8,-100.00,SE,146,0.3,3.1,80,0.00,,,0.00,WSDL version 423,2013-01-17 06:15:00,
2013-01-17 01:21:00,37.4,31.8,-100.00,SE,135,0.3,4.0,80,-99.99,,,-99.99,WSDL version 423,2013-01-17 06:21:00,
2013-01-17 01:27:00,37.5,31.6,-100.00,ESE,120,2.1,4.0,79,0.00,,,0.00,WSDL version 423,2013-01-17 06:27:00,
2013-01-17 01:33:00,37.6,31.7,-100.00,East,94,1.0,3.8,79,0.00,,,0.00,WSDL version 423,2013-01-17 06:33:00,
2013-01-17 01:39:00,37.6,31.6,-100.00,East,90,0.3,2.7,79,0.00,,,0.00,WSDL version 423,2013-01-17 06:39:00,
2013-01-17 01:45:00,37.6,31.4,-100.00,East,95,0.0,1.6,78,-99.99,,,-99.99,WSDL version 423,2013-01-17 06:45:00,
2013-01-17 01:51:00,37.4,31.2,-100.00,East,90,0.0,0.9,78,-99.99,,,-99.99,WSDL version 423,2013-01-17 06:51:00,
2013-01-17 01:57:00,37.4,31.2,-100.00,ENE,64,0.0,0.0,79,-99.99,,,-99.99,WSDL version 423,2013-01-17 06:57:00,
2013-01-17 02:03:00,37.5,31.3,-100.00,East,90,1.0,2.2,78,-99.99,,,-99.99,WSDL version 423,2013-01-17 07:03:00,
2013-01-17 02:09:00,37.6,31.3,-100.00,East,96,0.0,2.2,78,-99.99,,,-99.99,WSDL version 423,2013-01-17 07:09:00,
2013-01-17 02:15:00,37.5,31.3,-100.00,NE,35,0.0,0.0,78,0.00,,,0.00,WSDL version 423,2013-01-17 07:15:00,
2013-01-17 02:21:00,37.6,31.4,-100.00,East,101,0.3,2.0,78,0.00,,,0.00,WSDL version 423,2013-01-17 07:21:00,
2013-01-17 02:27:00,37.5,31.3,-100.00,SSE,149,0.8,2.2,78,0.00,,,0.00,WSDL version 423,2013-01-17 07:27:00,
2013-01-17 02:33:00,37.6,31.4,-100.00,West,270,0.0,2.2,78,0.00,,,0.00,WSDL version 423,2013-01-17 07:33:00,
2013-01-17 02:39:00,37.6,31.4,-100.00,SE,124,0.0,2.2,78,0.00,,,0.00,WSDL version 423,2013-01-17 07:39:00,
2013-01-17 02:45:00,37.6,31.4,-100.00,North,353,0.0,0.0,78,0.00,,,0.00,WSDL version 423,2013-01-17 07:45:00,
2013-01-17 02:51:00,37.5,31.3,-100.00,SW,225,0.0,1.1,78,0.00,,,0.00,WSDL version 423,2013-01-17 07:51:00,
2013-01-17 02:57:00,37.4,31.2,-100.00,SW,225,0.0,0.0,78,0.00,,,0.00,WSDL version 423,2013-01-17 07:57:00,
2013-01-17 03:03:00,37.4,31.4,-100.00,SSW,203,0.0,0.0,79,0.00,,,0.00,WSDL version 423,2013-01-17 08:03:00,
2013-01-17 03:09:00,37.3,31.4,-100.00,SSW,203,0.0,0.0,79,0.00,,,0.00,WSDL version 423,2013-01-17 08:09:00,
2013-01-17 03:15:00,37.2,31.3,-100.00,South,180,0.0,2.5,79,0.00,,,0.00,WSDL version 423,2013-01-17 08:15:00,
2013-01-17 03:21:00,37.4,31.5,-100.00,WNW,287,0.0,2.5,79,0.00,,,0.00,WSDL version 423,2013-01-17 08:21:00,
2013-01-17 03:27:00,37.4,31.5,-100.00,North,360,0.0,0.0,79,-99.99,,,-99.99,WSDL version 423,2013-01-17 08:27:00,
2013-01-17 03:33:00,37.4,31.5,-100.00,SSW,205,0.0,0.0,79,0.00,,,0.00,WSDL version 423,2013-01-17 08:33:00,
2013-01-17 03:39:00,37.6,31.5,-100.00,South,180,0.0,0.0,78,0.00,,,0.00,WSDL version 423,2013-01-17 08:39:00,
2013-01-17 03:45:00,37.6,31.4,-100.00,South,180,0.0,0.0,78,0.00,,,0.00,WSDL version 423,2013-01-17 08:45:00,
2013-01-17 03:51:00,37.4,31.2,-100.00,SSE,158,0.0,0.0,78,0.00,,,0.00,WSDL version 423,2013-01-17 08:51:00,
2013-01-17 03:57:00,37.6,31.4,-100.00,ESE,108,1.2,2.7,78,0.00,,,0.00,WSDL version 423,2013-01-17 08:57:00,
2013-01-17 04:03:00,37.7,31.5,-100.00,ESE,104,1.7,2.7,78,0.00,,,0.00,WSDL version 423,2013-01-17 09:03:00,
2013-01-17 04:09:00,37.9,31.7,-100.00,ESE,121,0.0,2.9,78,0.00,,,0.00,WSDL version 423,2013-01-17 09:09:00,
2013-01-17 04:15:00,37.9,31.4,-100.00,SE,135,0.0,2.0,77,0.00,,,0.00,WSDL version 423,2013-01-17 09:15:00,
2013-01-17 04:21:00,38.0,31.3,-100.00,SE,124,2.4,4.3,76,0.00,,,0.00,WSDL version 423,2013-01-17 09:21:00,
2013-01-17 04:27:00,38.1,31.2,-100.00,ESE,113,1.2,4.3,76,0.00,,,0.00,WSDL version 423,2013-01-17 09:27:00,
2013-01-17 04:33:00,38.1,31.2,-100.00,SE,127,0.3,3.8,76,0.00,,,0.00,WSDL version 423,2013-01-17 09:33:00,
2013-01-17 04:39:00,38.2,31.0,-100.00,East,96,2.0,4.3,75,0.00,,,0.00,WSDL version 423,2013-01-17 09:39:00,
2013-01-17 04:45:00,38.2,31.0,-100.00,ESE,122,0.1,4.3,75,0.00,,,0.00,WSDL version 423,2013-01-17 09:45:00,
2013-01-17 04:51:00,38.1,30.9,-100.00,ESE,118,1.2,3.4,75,0.00,,,0.00,WSDL version 423,2013-01-17 09:51:00,
2013-01-17 04:57:00,38.1,30.9,-100.00,East,96,0.0,3.4,75,0.00,,,0.00,WSDL version 423,2013-01-17 09:57:00,
2013-01-17 05:03:00,38.1,30.9,-100.00,ESE,113,0.0,2.2,75,0.00,,,0.00,WSDL version 423,2013-01-17 10:03:00,
2013-01-17 05:09:00,38.1,30.9,-100.00,East,90,1.4,2.5,75,0.00,,,0.00,WSDL version 423,2013-01-17 10:09:00,
2013-01-17 05:15:00,38.1,30.9,-100.00,ESE,123,1.1,2.5,75,0.00,,,0.00,WSDL version 423,2013-01-17 10:15:00,
2013-01-17 05:21:00,38.1,30.9,-100.00,ESE,113,0.7,2.5,75,0.00,,,0.00,WSDL version 423,2013-01-17 10:21:00,
2013-01-17 05:27:00,38.1,30.8,-100.00,SE,128,1.2,3.6,74,0.00,,,0.00,WSDL version 423,2013-01-17 10:27:00,
2013-01-17 05:33:00,38.3,30.8,-100.00,SE,146,1.8,3.6,74,0.00,,,0.00,WSDL version 423,2013-01-17 10:33:00,
2013-01-17 05:39:00,38.4,30.5,-100.00,SE,128,2.2,3.6,73,0.00,,,0.00,WSDL version 423,2013-01-17 10:39:00,
2013-01-17 05:45:00,38.5,30.6,-100.00,ESE,109,1.1,3.4,73,0.00,,,0.00,WSDL version 423,2013-01-17 10:45:00,
2013-01-17 05:51:00,38.5,30.6,-100.00,SE,135,1.3,2.5,73,0.00,,,0.00,WSDL version 423,2013-01-17 10:51:00,
2013-01-17 05:57:00,38.4,30.5,-100.00,SE,125,0.0,2.5,73,0.00,,,0.00,WSDL version 423,2013-01-17 10:57:00,
2013-01-17 06:03:00,38.4,30.5,-100.00,ESE,109,1.2,3.4,73,0.00,,,0.00,WSDL version 423,2013-01-17 11:03:00,
2013-01-17 06:09:00,38.3,30.4,-100.00,East,101,0.6,3.4,73,0.00,,,0.00,WSDL version 423,2013-01-17 11:09:00,
2013-01-17 06:15:00,38.3,30.4,-100.00,ESE,107,0.8,2.5,73,0.00,,,0.00,WSDL version 423,2013-01-17 11:15:00,
2013-01-17 06:21:00,38.3,30.4,-100.00,SE,132,1.9,4.7,73,0.00,,,0.00,WSDL version 423,2013-01-17 11:21:00,
2013-01-17 06:27:00,38.2,30.1,-100.00,ESE,113,0.6,4.7,72,0.00,,,0.00,WSDL version 423,2013-01-17 11:27:00,
2013-01-17 06:33:00,38.2,30.0,-100.00,ESE,118,1.8,3.6,72,0.00,,,0.00,WSDL version 423,2013-01-17 11:33:00,
2013-01-17 06:39:00,38.3,30.0,-100.00,ESE,122,2.4,4.0,72,0.00,,,0.00,WSDL version 423,2013-01-17 11:39:00,
2013-01-17 06:45:00,38.2,29.6,-100.00,ESE,122,2.0,4.0,71,0.00,,,0.00,WSDL version 423,2013-01-17 11:45:00,
2013-01-17 06:51:00,38.1,29.5,-100.00,East,98,1.9,4.0,70,0.00,,,0.00,WSDL version 423,2013-01-17 11:51:00,
2013-01-17 06:57:00,38.1,29.6,-100.00,SE,135,2.0,4.0,71,0.00,,,0.00,WSDL version 423,2013-01-17 11:57:00,
2013-01-17 07:03:00,38.1,29.6,-100.00,ESE,113,1.4,4.0,71,0.00,,,0.00,WSDL version 423,2013-01-17 12:03:00,
2013-01-17 07:09:00,38.1,29.3,-100.00,East,101,3.4,5.4,70,0.00,,,0.00,WSDL version 423,2013-01-17 12:09:00,
2013-01-17 07:15:00,38.1,29.1,-100.00,SE,129,2.3,6.5,69,0.00,,,0.00,WSDL version 423,2013-01-17 12:15:00,
2013-01-17 07:21:00,38.2,28.6,-100.00,ESE,105,2.7,6.5,67,0.00,,,0.00,WSDL version 423,2013-01-17 12:21:00,
2013-01-17 07:27:00,38.3,28.3,-100.00,ENE,72,2.3,4.3,67,0.00,,,0.00,WSDL version 423,2013-01-17 12:27:00,
2013-01-17 07:33:00,38.1,28.2,-100.00,ESE,110,2.0,4.3,67,0.00,,,0.00,WSDL version 423,2013-01-17 12:33:00,
2013-01-17 07:39:00,38.1,28.1,-100.00,SSE,155,0.6,3.8,68,0.00,,,0.00,WSDL version 423,2013-01-17 12:39:00,
2013-01-17 07:45:00,38.1,28.5,-100.00,SE,139,2.0,4.0,68,0.00,,,0.00,WSDL version 423,2013-01-17 12:45:00,
2013-01-17 07:51:00,38.1,28.5,-100.00,ESE,121,2.7,5.4,67,0.00,,,0.00,WSDL version 423,2013-01-17 12:51:00,
2013-01-17 07:57:00,38.4,28.0,-100.00,ESE,110,4.1,6.9,66,0.00,,,0.00,WSDL version 423,2013-01-17 12:57:00,
2013-01-17 08:03:00,38.5,28.1,-100.00,ESE,104,2.3,6.9,66,0.00,,,0.00,WSDL version 423,2013-01-17 13:03:00,
2013-01-17 08:09:00,38.7,28.2,-100.00,ESE,113,0.3,4.9,66,0.00,,,0.00,WSDL version 423,2013-01-17 13:09:00,
2013-01-17 08:15:00,38.7,28.5,-100.00,ESE,109,0.2,5.8,67,0.00,,,0.00,WSDL version 423,2013-01-17 13:15:00,
2013-01-17 08:21:00,38.7,28.7,-100.00,ESE,105,0.6,2.5,67,0.00,,,0.00,WSDL version 423,2013-01-17 13:21:00,
2013-01-17 08:27:00,38.6,29.0,-100.00,SE,132,1.2,2.7,68,0.00,,,0.00,WSDL version 423,2013-01-17 13:27:00,
2013-01-17 08:33:00,38.5,28.8,-100.00,SSE,154,0.6,3.1,68,0.00,,,0.00,WSDL version 423,2013-01-17 13:33:00,
2013-01-17 08:39:00,38.5,28.7,-100.00,SE,125,1.4,3.6,67,0.00,,,0.00,WSDL version 423,2013-01-17 13:39:00,
2013-01-17 08:45:00,38.5,28.7,-100.00,SE,141,1.0,2.9,67,0.00,,,0.00,WSDL version 423,2013-01-17 13:45:00,
2013-01-17 08:51:00,38.7,28.5,-100.00,SE,129,2.2,3.6,66,0.00,,,0.00,WSDL version 423,2013-01-17 13:51:00,
2013-01-17 08:57:00,38.7,28.3,-100.00,ESE,119,1.0,3.6,66,0.00,,,0.00,WSDL version 423,2013-01-17 13:57:00,
2013-01-17 09:03:00,38.8,28.7,-100.00,SE,129,2.1,3.4,66,0.00,,,0.00,WSDL version 423,2013-01-17 14:03:00,
2013-01-17 09:09:00,39.0,29.0,-100.00,SE,143,1.1,3.1,67,0.00,,,0.00,WSDL version 423,2013-01-17 14:09:00,
2013-01-17 09:15:00,39.2,28.5,-100.00,SE,125,1.9,3.6,65,0.00,,,0.00,WSDL version 423,2013-01-17 14:15:00,
2013-01-17 09:21:00,39.4,29.0,-100.00,ESE,104,1.1,3.4,66,0.00,,,0.00,WSDL version 423,2013-01-17 14:21:00,
2013-01-17 09:27:00,39.8,29.4,-100.00,SE,129,1.6,3.4,66,0.00,,,0.00,WSDL version 423,2013-01-17 14:27:00,
2013-01-17 09:33:00,40.4,29.8,-100.00,SE,125,1.4,4.0,65,0.00,,,0.00,WSDL version 423,2013-01-17 14:33:00,
2013-01-17 09:39:00,40.8,30.0,-100.00,ESE,107,2.5,5.6,64,0.00,,,0.00,WSDL version 423,2013-01-17 14:39:00,
2013-01-17 09:45:00,41.3,29.9,-100.00,ESE,109,3.0,4.9,63,0.00,,,0.00,WSDL version 423,2013-01-17 14:45:00,
2013-01-17 09:51:00,41.8,29.1,-100.00,East,94,2.8,6.0,58,0.00,,,0.00,WSDL version 423,2013-01-17 14:51:00,
2013-01-17 09:57:00,41.7,28.4,-100.00,ESE,113,3.9,7.4,58,0.00,,,0.00,WSDL version 423,2013-01-17 14:57:00,
2013-01-17 10:03:00,42.0,27.2,-100.00,SE,135,1.2,7.4,55,0.00,,,0.00,WSDL version 423,2013-01-17 15:03:00,
2013-01-17 10:09:00,42.5,27.1,-100.00,ESE,116,4.1,8.1,54,0.00,,,0.00,WSDL version 423,2013-01-17 15:09:00,
2013-01-17 10:15:00,43.1,27.3,-100.00,ESE,116,4.5,7.2,52,0.00,,,0.00,WSDL version 423,2013-01-17 15:15:00,
2013-01-17 10:21:00,42.8,26.2,-100.00,SE,129,4.8,8.5,52,0.00,,,0.00,WSDL version 423,2013-01-17 15:21:00,
2013-01-17 10:27:00,42.5,26.0,-100.00,ESE,106,1.8,8.5,53,0.00,,,0.00,WSDL version 423,2013-01-17 15:27:00,
2013-01-17 10:33:00,42.6,25.9,-100.00,SE,141,4.3,8.1,51,0.00,,,0.00,WSDL version 423,2013-01-17 15:33:00,
2013-01-17 10:39:00,42.6,26.2,-100.00,SE,132,4.1,7.6,51,0.00,,,0.00,WSDL version 423,2013-01-17 15:39:00,
2013-01-17 10:45:00,42.4,26.1,-100.00,ESE,121,2.7,6.7,52,0.00,,,0.00,WSDL version 423,2013-01-17 15:45:00,
2013-01-17 10:51:00,42.4,25.9,-100.00,SSE,163,2.5,6.5,52,0.00,,,0.00,WSDL version 423,2013-01-17 15:51:00,
2013-01-17 10:57:00,42.2,25.5,-100.00,East,93,5.2,9.8,50,0.00,,,0.00,WSDL version 423,2013-01-17 15:57:00,
2013-01-17 11:03:00,41.8,25.2,-100.00,SE,132,4.0,9.8,52,0.00,,,0.00,WSDL version 423,2013-01-17 16:03:00,
2013-01-17 11:09:00,42.1,25.4,-100.00,SE,141,4.2,8.1,52,0.00,,,0.00,WSDL version 423,2013-01-17 16:09:00,
2013-01-17 11:15:00,42.1,25.9,-100.00,SE,135,3.0,6.3,52,0.00,,,0.00,WSDL version 423,2013-01-17 16:15:00,
2013-01-17 11:21:00,42.2,26.4,-100.00,ESE,109,3.0,6.3,53,0.00,,,0.00,WSDL version 423,2013-01-17 16:21:00,
2013-01-17 11:27:00,42.2,25.8,-100.00,SE,138,3.6,9.2,52,0.00,,,0.00,WSDL version 423,2013-01-17 16:27:00,
2013-01-17 11:33:00,42.5,26.3,-100.00,SE,128,4.6,6.3,53,0.00,,,0.00,WSDL version 423,2013-01-17 16:33:00,
2013-01-17 11:39:00,42.6,26.5,-100.00,SE,131,3.4,6.3,52,0.00,,,0.00,WSDL version 423,2013-01-17 16:39:00,
2013-01-17 11:45:00,42.6,26.0,-100.00,ESE,113,2.7,5.8,51,0.00,,,0.00,WSDL version 423,2013-01-17 16:45:00,
2013-01-17 11:51:00,42.8,26.0,-100.00,ESE,115,4.2,6.3,50,0.00,,,0.00,WSDL version 423,2013-01-17 16:51:00,
2013-01-17 11:57:00,43.0,26.3,-100.00,ESE,113,2.1,6.3,52,0.00,,,0.00,WSDL version 423,2013-01-17 16:57:00,
2013-01-17 12:03:00,43.2,25.9,-100.00,ESE,113,3.1,9.6,50,0.00,,,0.00,WSDL version 423,2013-01-17 17:03:00,
2013-01-17 12:09:00,43.5,26.7,-100.00,ESE,113,2.0,8.1,52,0.00,,,0.00,WSDL version 423,2013-01-17 17:09:00,
2013-01-17 12:15:00,44.2,27.6,-100.00,ESE,104,3.0,5.8,51,0.00,,,0.00,WSDL version 423,2013-01-17 17:15:00,
2013-01-17 12:21:00,44.8,28.1,-100.00,ESE,115,3.5,6.3,52,0.00,,,0.00,WSDL version 423,2013-01-17 17:21:00,
2013-01-17 12:27:00,44.6,25.9,-100.00,SE,140,4.3,7.8,48,0.00,,,0.00,WSDL version 423,2013-01-17 17:27:00,
2013-01-17 12:33:00,44.6,26.6,-100.00,SE,128,1.9,7.8,50,0.00,,,0.00,WSDL version 423,2013-01-17 17:33:00,
2013-01-17 12:39:00,45.1,27.1,-100.00,SE,125,3.5,7.8,48,0.00,,,0.00,WSDL version 423,2013-01-17 17:39:00,
2013-01-17 12:45:00,44.5,24.6,-100.00,SSE,158,2.5,8.1,47,0.00,,,0.00,WSDL version 423,2013-01-17 17:45:00,
2013-01-17 12:51:00,44.6,25.8,-100.00,SSE,155,2.4,6.5,46,0.00,,,0.00,WSDL version 423,2013-01-17 17:51:00,
2013-01-17 12:57:00,44.3,24.3,-100.00,ESE,118,4.5,7.4,44,0.00,,,0.00,WSDL version 423,2013-01-17 17:57:00,
2013-01-17 13:03:00,43.8,24.9,-100.00,SSW,211,2.8,7.4,48,0.00,,,0.00,WSDL version 423,2013-01-17 18:03:00,
2013-01-17 13:09:00,43.9,25.2,-100.00,SSE,154,3.4,6.0,47,0.00,,,0.00,WSDL version 423,2013-01-17 18:09:00,
2013-01-17 13:15:00,44.1,25.4,-100.00,SE,143,2.6,4.9,48,0.00,,,0.00,WSDL version 423,2013-01-17 18:15:00,
2013-01-17 13:21:00,44.2,25.5,-100.00,SSE,154,2.3,6.0,47,0.00,,,0.00,WSDL version 423,2013-01-17 18:21:00,
2013-01-17 13:27:00,44.4,25.8,-100.00,SE,135,3.2,5.6,47,0.00,,,0.00,WSDL version 423,2013-01-17 18:27:00,
2013-01-17 13:33:00,44.2,25.1,-100.00,SE,146,2.8,5.6,47,0.00,,,0.00,WSDL version 423,2013-01-17 18:33:00,
2013-01-17 13:39:00,44.5,25.8,-100.00,SSE,151,2.7,3.6,48,0.00,,,0.00,WSDL version 423,2013-01-17 18:39:00,
2013-01-17 13:45:00,45.1,26.1,-100.00,SE,141,2.6,4.0,46,0.00,,,0.00,WSDL version 423,2013-01-17 18:45:00,
2013-01-17 13:51:00,45.1,26.4,-100.00,SE,133,2.5,4.0,47,0.00,,,0.00,WSDL version 423,2013-01-17 18:51:00,
2013-01-17 13:57:00,45.1,25.7,-100.00,SE,145,2.3,4.9,48,0.00,,,0.00,WSDL version 423,2013-01-17 18:57:00,
2013-01-17 14:03:00,45.1,25.1,-100.00,ESE,115,2.8,9.6,46,0.00,,,0.00,WSDL version 423,2013-01-17 19:03:00,
2013-01-17 14:09:00,44.8,24.9,-100.00,SE,124,3.8,6.3,46,0.00,,,0.00,WSDL version 423,2013-01-17 19:09:00,
2013-01-17 14:15:00,44.7,24.4,-100.00,SE,129,2.5,6.3,45,0.00,,,0.00,WSDL version 423,2013-01-17 19:15:00,
2013-01-17 14:21:00,44.8,25.3,-100.00,SE,127,3.7,7.8,45,0.00,,,0.00,WSDL version 423,2013-01-17 19:21:00,
2013-01-17 14:27:00,44.5,24.6,-100.00,SSE,158,3.9,8.1,45,0.00,,,0.00,WSDL version 423,2013-01-17 19:27:00,
2013-01-17 14:33:00,44.3,24.8,-100.00,SE,135,3.2,8.1,46,0.00,,,0.00,WSDL version 423,2013-01-17 19:33:00,
2013-01-17 14:39:00,44.1,24.4,-100.00,SSE,149,1.8,5.8,46,0.00,,,0.00,WSDL version 423,2013-01-17 19:39:00,
2013-01-17 14:45:00,44.1,24.2,-100.00,SE,143,2.6,4.0,45,0.00,,,0.00,WSDL version 423,2013-01-17 19:45:00,
2013-01-17 14:51:00,43.8,24.2,-100.00,SSE,151,2.4,5.8,46,0.00,,,0.00,WSDL version 423,2013-01-17 19:51:00,
2013-01-17 14:57:00,43.6,23.7,-100.00,South,188,2.1,6.0,46,0.00,,,0.00,WSDL version 423,2013-01-17 19:57:00,
2013-01-17 15:03:00,43.4,24.2,-100.00,SSE,163,2.0,6.0,46,0.00,,,0.00,WSDL version 423,2013-01-17 20:03:00,
2013-01-17 15:09:00,43.3,24.3,-100.00,SE,141,3.2,4.9,47,0.00,,,0.00,WSDL version 423,2013-01-17 20:09:00,
2013-01-17 15:15:00,43.2,23.9,-100.00,ESE,123,2.6,4.9,46,0.00,,,0.00,WSDL version 423,2013-01-17 20:15:00,
2013-01-17 15:21:00,43.2,24.3,-100.00,ESE,110,1.4,4.7,48,0.00,,,0.00,WSDL version 423,2013-01-17 20:21:00,
2013-01-17 15:27:00,43.0,24.3,-100.00,SSE,149,1.6,4.0,47,0.00,,,0.00,WSDL version 423,2013-01-17 20:27:00,
2013-01-17 15:33:00,42.8,23.6,-100.00,ESE,116,3.7,6.0,46,0.00,,,0.00,WSDL version 423,2013-01-17 20:33:00,
2013-01-17 15:39:00,42.6,23.6,-100.00,SE,135,2.2,6.0,47,0.00,,,0.00,WSDL version 423,2013-01-17 20:39:00,
2013-01-17 15:45:00,42.4,23.8,-100.00,SSE,158,3.2,5.8,47,0.00,,,0.00,WSDL version 423,2013-01-17 20:45:00,
2013-01-17 15:51:00,42.4,23.9,-100.00,ESE,110,2.2,5.8,48,0.00,,,0.00,WSDL version 423,2013-01-17 20:51:00,
2013-01-17 15:57:00,42.3,23.7,-100.00,SE,133,3.0,5.4,46,0.00,,,0.00,WSDL version 423,2013-01-17 20:57:00,
2013-01-17 16:03:00,42.2,23.3,-100.00,SE,128,3.5,6.0,46,0.00,,,0.00,WSDL version 423,2013-01-17 21:03:00,
2013-01-17 16:09:00,42.1,22.9,-100.00,East,101,3.6,7.2,46,0.00,,,0.00,WSDL version 423,2013-01-17 21:09:00,
2013-01-17 16:15:00,41.9,22.9,-100.00,SSE,151,3.0,7.2,47,0.00,,,0.00,WSDL version 423,2013-01-17 21:15:00,
2013-01-17 16:21:00,41.7,23.4,-100.00,SSE,158,1.8,4.0,48,0.00,,,0.00,WSDL version 423,2013-01-17 21:21:00,
2013-01-17 16:27:00,41.7,23.4,-100.00,SE,124,2.7,5.6,48,0.00,,,0.00,WSDL version 423,2013-01-17 21:27:00,
2013-01-17 16:33:00,41.6,23.3,-100.00,ESE,110,2.2,5.6,48,0.00,,,0.00,WSDL version 423,2013-01-17 21:33:00,
2013-01-17 16:39:00,41.5,23.6,-100.00,SSW,193,2.2,3.6,49,0.00,,,0.00,WSDL version 423,2013-01-17 21:39:00,
2013-01-17 16:45:00,41.4,23.7,-100.00,SE,130,2.2,4.0,49,0.00,,,0.00,WSDL version 423,2013-01-17 21:45:00,
2013-01-17 16:51:00,41.2,23.8,-100.00,East,93,0.4,4.0,50,0.00,,,0.00,WSDL version 423,2013-01-17 21:51:00,
2013-01-17 16:57:00,41.2,23.7,-100.00,ESE,106,0.9,4.3,50,0.00,,,0.00,WSDL version 423,2013-01-17 21:57:00,
2013-01-17 17:03:00,41.2,24.0,-100.00,South,180,0.7,2.5,50,0.00,,,0.00,WSDL version 423,2013-01-17 22:03:00,
2013-01-17 17:09:00,41.0,23.8,-100.00,ESE,113,1.3,3.1,50,0.00,,,0.00,WSDL version 423,2013-01-17 22:09:00,
2013-01-17 17:15:00,41.0,23.8,-100.00,SSE,164,0.8,3.1,50,0.00,,,0.00,WSDL version 423,2013-01-17 22:15:00,
2013-01-17 17:21:00,41.0,24.0,-100.00,ESE,113,0.0,2.2,51,0.00,,,0.00,WSDL version 423,2013-01-17 22:21:00,
2013-01-17 17:27:00,40.8,24.1,-100.00,ESE,113,0.0,1.3,51,0.00,,,0.00,WSDL version 423,2013-01-17 22:27:00,
2013-01-17 17:33:00,40.7,24.0,-100.00,ESE,113,0.0,1.3,51,0.00,,,0.00,WSDL version 423,2013-01-17 22:33:00,
2013-01-17 17:39:00,40.6,23.9,-100.00,SSE,158,0.0,0.9,51,0.00,,,0.00,WSDL version 423,2013-01-17 22:39:00,
2013-01-17 17:45:00,40.6,24.0,-100.00,SSE,158,0.0,0.9,52,0.00,,,0.00,WSDL version 423,2013-01-17 22:45:00,
2013-01-17 17:51:00,40.5,24.2,-100.00,ESE,113,0.3,1.6,52,0.00,,,0.00,WSDL version 423,2013-01-17 22:51:00,
2013-01-17 17:57:00,40.6,24.3,-100.00,East,90,0.0,1.6,52,0.00,,,0.00,WSDL version 423,2013-01-17 22:57:00,
2013-01-17 18:03:00,40.6,24.0,-100.00,SSW,203,0.8,2.2,52,0.00,,,0.00,WSDL version 423,2013-01-17 23:03:00,
2013-01-17 18:09:00,40.5,24.3,-100.00,SSW,205,0.1,2.2,52,0.00,,,0.00,WSDL version 423,2013-01-17 23:09:00,
2013-01-17 18:15:00,40.6,24.4,-100.00,East,90,0.0,1.6,52,0.00,,,0.00,WSDL version 423,2013-01-17 23:15:00,
2013-01-17 18:21:00,40.6,24.4,-100.00,SE,135,0.0,0.9,52,0.00,,,0.00,WSDL version 423,2013-01-17 23:21:00,
2013-01-17 18:27:00,40.6,24.3,-100.00,South,173,0.0,0.9,52,0.00,,,0.00,WSDL version 423,2013-01-17 23:27:00,
2013-01-17 18:33:00,40.5,24.2,-100.00,SW,219,0.0,0.0,52,0.00,,,0.00,WSDL version 423,2013-01-17 23:33:00,
2013-01-17 18:39:00,40.4,24.2,-100.00,South,180,0.0,0.0,52,0.00,,,0.00,WSDL version 423,2013-01-17 23:39:00,
2013-01-17 18:45:00,40.4,24.3,-100.00,SE,130,0.0,1.3,53,0.00,,,0.00,WSDL version 423,2013-01-17 23:45:00,
2013-01-17 18:51:00,40.3,24.5,-100.00,SSW,203,0.0,0.0,53,0.00,,,0.00,WSDL version 423,2013-01-17 23:51:00,
2013-01-17 18:57:00,40.1,24.4,-100.00,SSW,203,0.0,0.0,53,0.00,,,0.00,WSDL version 423,2013-01-17 23:57:00,
2013-01-17 19:03:00,40.0,24.3,-100.00,South,177,0.0,0.0,53,0.00,,,0.00,WSDL version 423,2013-01-18 00:03:00,
2013-01-17 19:09:00,39.9,24.2,-100.00,SE,135,0.0,0.0,53,0.00,,,0.00,WSDL version 423,2013-01-18 00:09:00,
2013-01-17 19:15:00,39.9,24.4,-100.00,SE,135,0.0,1.3,53,0.00,,,0.00,WSDL version 423,2013-01-18 00:15:00,
2013-01-17 19:21:00,40.0,24.1,-100.00,SE,132,0.1,2.5,52,0.00,,,0.00,WSDL version 423,2013-01-18 00:21:00,
2013-01-17 19:27:00,40.1,24.2,-100.00,ESE,105,0.0,2.0,53,0.00,,,0.00,WSDL version 423,2013-01-18 00:27:00,
2013-01-17 19:33:00,39.9,24.2,-100.00,NW,315,0.0,1.6,53,0.00,,,0.00,WSDL version 423,2013-01-18 00:33:00,
2013-01-17 19:39:00,39.9,24.1,-100.00,SE,135,0.6,1.6,52,0.00,,,0.00,WSDL version 423,2013-01-18 00:39:00,
2013-01-17 19:45:00,39.9,24.2,-100.00,West,270,0.3,1.6,53,0.00,,,0.00,WSDL version 423,2013-01-18 00:45:00,
2013-01-17 19:51:00,39.9,24.2,-100.00,South,180,0.0,1.3,53,0.00,,,0.00,WSDL version 423,2013-01-18 00:51:00,
2013-01-17 19:57:00,39.7,24.0,-100.00,South,180,0.0,0.0,53,0.00,,,0.00,WSDL version 423,2013-01-18 00:57:00,
2013-01-17 20:03:00,39.7,24.0,-100.00,SW,225,0.0,0.9,53,0.00,,,0.00,WSDL version 423,2013-01-18 01:03:00,
2013-01-17 20:09:00,39.7,24.0,-100.00,SSW,203,0.0,0.9,53,0.00,,,0.00,WSDL version 423,2013-01-18 01:09:00,
2013-01-17 20:15:00,39.7,24.0,-100.00,ESE,113,0.6,2.9,53,0.00,,,0.00,WSDL version 423,2013-01-18 01:15:00,
2013-01-17 20:21:00,39.7,23.4,-100.00,SW,231,1.2,3.1,52,0.00,,,0.00,WSDL version 423,2013-01-18 01:21:00,
2013-01-17 20:27:00,39.7,23.4,-100.00,North,357,0.6,3.1,52,0.00,,,0.00,WSDL version 423,2013-01-18 01:27:00,
2013-01-17 20:33:00,39.5,23.3,-100.00,WSW,240,1.1,2.7,52,0.00,,,0.00,WSDL version 423,2013-01-18 01:33:00,
2013-01-17 20:39:00,39.4,23.2,-100.00,SSW,193,1.2,2.7,52,0.00,,,0.00,WSDL version 423,2013-01-18 01:39:00,
2013-01-17 20:45:00,39.2,23.1,-100.00,NW,315,0.0,2.7,52,0.00,,,0.00,WSDL version 423,2013-01-18 01:45:00,
2013-01-17 20:51:00,39.2,22.9,-100.00,ESE,119,1.8,3.4,51,0.00,,,0.00,WSDL version 423,2013-01-18 01:51:00,
2013-01-17 20:57:00,39.1,22.8,-100.00,SE,146,1.3,3.4,52,0.00,,,0.00,WSDL version 423,2013-01-18 01:57:00,
2013-01-17 21:03:00,39.0,22.4,-100.00,NE,51,1.1,5.4,51,0.00,,,0.00,WSDL version 423,2013-01-18 02:03:00,
2013-01-17 21:09:00,38.8,22.3,-100.00,East,98,1.1,5.4,51,0.00,,,0.00,WSDL version 423,2013-01-18 02:09:00,
2013-01-17 21:15:00,38.8,22.4,-100.00,NE,40,0.6,2.7,51,0.00,,,0.00,WSDL version 423,2013-01-18 02:15:00,
2013-01-17 21:21:00,38.7,22.1,-100.00,ESE,118,2.5,3.8,51,0.00,,,0.00,WSDL version 423,2013-01-18 02:21:00,
2013-01-17 21:27:00,38.7,22.4,-100.00,SE,132,0.8,3.8,52,0.00,,,0.00,WSDL version 423,2013-01-18 02:27:00,
2013-01-17 21:33:00,38.6,22.4,-100.00,SE,135,0.2,2.7,52,0.00,,,0.00,WSDL version 423,2013-01-18 02:33:00,
2013-01-17 21:39:00,38.5,22.4,-100.00,SSE,163,1.6,2.9,52,0.00,,,0.00,WSDL version 423,2013-01-18 02:39:00,
2013-01-17 21:45:00,38.4,21.8,-100.00,SE,138,1.5,7.4,51,0.00,,,0.00,WSDL version 423,2013-01-18 02:45:00,
2013-01-17 21:51:00,38.1,21.6,-100.00,NE,51,1.7,4.9,51,0.00,,,0.00,WSDL version 423,2013-01-18 02:51:00,
2013-01-17 21:57:00,38.0,21.5,-100.00,SE,138,1.7,4.3,51,0.00,,,0.00,WSDL version 423,2013-01-18 02:57:00,
2013-01-17 22:03:00,37.9,21.4,-100.00,SSW,209,1.2,2.9,52,0.00,,,0.00,WSDL version 423,2013-01-18 03:03:00,
2013-01-17 22:09:00,37.7,21.5,-100.00,WSW,239,1.1,2.7,52,0.00,,,0.00,WSDL version 423,2013-01-18 03:09:00,
2013-01-17 22:15:00,37.6,21.6,-100.00,ESE,123,1.0,3.1,52,0.00,,,0.00,WSDL version 423,2013-01-18 03:15:00,
2013-01-17 22:21:00,37.6,21.6,-100.00,SE,138,0.8,3.1,52,0.00,,,0.00,WSDL version 423,2013-01-18 03:21:00,
2013-01-17 22:27:00,37.4,21.4,-100.00,SE,129,1.8,2.9,52,0.00,,,0.00,WSDL version 423,2013-01-18 03:27:00,
2013-01-17 22:33:00,37.4,21.4,-100.00,WSW,238,0.6,2.9,53,0.00,,,0.00,WSDL version 423,2013-01-18 03:33:00,
2013-01-17 22:39:00,37.4,21.5,-100.00,West,270,1.0,3.4,53,0.00,,,0.00,WSDL version 423,2013-01-18 03:39:00,
2013-01-17 22:45:00,37.2,21.7,-100.00,ESE,121,1.6,2.5,53,0.00,,,0.00,WSDL version 423,2013-01-18 03:45:00,
2013-01-17 22:51:00,37.1,21.8,-100.00,ESE,118,1.0,2.7,53,0.00,,,0.00,WSDL version 423,2013-01-18 03:51:00,
2013-01-17 22:57:00,37.0,21.9,-100.00,East,100,1.0,3.6,54,0.00,,,0.00,WSDL version 423,2013-01-18 03:57:00,
2013-01-17 23:03:00,37.1,22.0,-100.00,NW,320,1.1,2.9,54,0.00,,,0.00,WSDL version 423,2013-01-18 04:03:00,
2013-01-17 23:09:00,37.1,22.0,-100.00,SE,135,0.0,2.9,54,0.00,,,0.00,WSDL version 423,2013-01-18 04:09:00,
2013-01-17 23:15:00,37.0,21.9,-100.00,SE,135,0.0,0.0,54,0.00,,,0.00,WSDL version 423,2013-01-18 04:15:00,
2013-01-17 23:21:00,37.0,21.9,-100.00,WSW,250,0.5,2.2,54,0.00,,,0.00,WSDL version 423,2013-01-18 04:21:00,
2013-01-17 23:27:00,37.0,21.9,-100.00,South,180,0.0,2.2,54,0.00,,,0.00,WSDL version 423,2013-01-18 04:27:00,
2013-01-17 23:33:00,37.0,21.9,-100.00,SSE,163,0.0,0.0,54,0.00,,,0.00,WSDL version 423,2013-01-18 04:33:00,
2013-01-17 23:39:00,36.9,21.5,-100.00,SE,135,0.0,0.0,53,0.00,,,0.00,WSDL version 423,2013-01-18 04:39:00,
2013-01-17 23:45:00,37.0,21.1,-100.00,SE,135,1.0,2.5,52,0.00,,,0.00,WSDL version 423,2013-01-18 04:45:00,
2013-01-17 23:51:00,36.9,21.2,-100.00,SW,214,0.0,2.0,53,0.00,,,0.00,WSDL version 423,2013-01-18 04:51:00,
2013-01-17 23:57:00,36.9,21.3,-100.00,NNE,31,0.6,1.6,53,0.00,,,0.00,WSDL version 423,2013-01-18 04:57:00,